SK0BO-13 Weather Reports


Display with metric or nautical units.
time (UTC)temp
F
wind
direction
speed
MPH
gust
MPH
rain 1hr
in
rain 24hr
in
rain mn
in
humidity
%
barometer
mb
20260507113443 63 348 3.0 6.0 0.00 0.00 0.00 998.7
20260507105243 68 165 2.0 4.0 0.00 0.00 0.00 998.8
20260507101042 85 163 1.0 2.0 0.00 0.00 0.00 998.8
20260507092843 81 167 1.0 3.0 0.00 0.00 0.00 998.7
20260507084642 72 158 1.0 1.0 0.00 0.00 0.00 998.7
20260507080442 71 172 1.0 2.0 0.00 0.00 0.00 998.7
20260507072242 64 185 2.0 2.0 0.00 0.00 0.00 998.7
20260507064042 57 188 2.0 3.0 0.00 0.00 0.00 3 998.7
20260507055843 54 189 3.0 3.0 0.00 0.00 0.00 12 998.7
20260507051642 51 191 3.0 3.0 0.00 0.00 0.00 21 998.7
20260507043442 46 188 2.0 3.0 0.00 0.00 0.00 30 998.7
20260507035242 40 171 2.0 3.0 0.00 0.00 0.00 30 998.7
20260507031042 40 169 2.0 3.0 0.00 0.00 0.00 33 998.6
20260507022842 39 169 2.0 3.0 0.00 0.00 0.00 32 998.2
20260507014642 39 170 3.0 3.0 0.00 0.00 0.00 28 998.2
20260507010443 40 170 3.0 3.0 0.00 0.00 0.00 26 997.7
20260507002243 41 170 3.0 3.0 0.00 0.00 0.00 27 997.7
20260506234042 42 170 2.0 3.0 0.00 0.00 0.00 28 997.7
20260506225842 42 171 2.0 3.0 0.00 0.00 0.00 25 997.7
20260506221642 43 173 2.0 3.0 0.00 0.00 0.00 23 997.7
20260506213442 44 174 4.0 4.0 0.00 0.00 0.00 21 997.7
20260506205242 45 173 3.0 4.0 0.00 0.00 0.00 19 997.7
20260506201042 45 172 2.0 2.0 0.00 0.00 0.00 17 997.7
20260506192843 46 178 2.0 3.0 0.00 0.00 0.00 13 997.7
20260506184642 48 183 2.0 3.0 0.00 0.00 0.00 5 997.7
20260506180442 49 189 2.0 3.0 0.00 0.00 0.00 3 996.9
20260506172243 53 195 3.0 3.0 0.00 0.00 0.00 996.7
20260506164042 60 198 3.0 3.0 0.00 0.00 0.00 996.7
20260506155842 60 203 3.0 3.0 0.00 0.00 0.00 996.7
20260506151642 62 206 2.0 3.0 0.00 0.00 0.00 996.7
20260506143443 62 203 3.0 5.0 0.00 0.00 0.00 996.7
20260506135242 68 204 2.0 3.0 0.00 0.00 0.00 996.7
20260506131042 81 184 1.0 3.0 0.00 0.00 0.00 996.7
20260506122842 89 174 1.0 1.0 0.00 0.00 0.00 996.9
20260506114642 89 171 1.0 1.0 0.00 0.00 0.00 997.5